METEOR 2-11 DEB, 42456

Orbit data source: Space-Track

METEOR 2-11 DEB, 42456 is space debris in LEO originally from a launch on Thu, 05 Jul 1984 UTC launched from the Plesetsk Missile And Space Complex (PKMTR). Debris objects in space refer to the collection of defunct objects orbiting the Earth. Examples of debris include non-operational satellites, rocket bodies, and fragments generated from explosions, collisions, or faulty payload assembly.

Loading next visibility...
METEOR 2-11 DEB details
Identifier
42456, 1984-072S
Orbit
LEO
Last TLE update2 months ago
Origin
Flag of CISVVKO (CIS)
ManufacturerUnknown
MissionSpacecraft
Bus & MotorUnknown
MassUnknown
Launch date (UTC)
1984-07-05 (40 years ago)
Launch vehicleUnknown
Launch site
Plesetsk Missile And Space Complex (PKMTR)
Object type
Payload
Rocket body
Debris
Shape & HBRUnknown
Radar Cross SectionSmall (<0.1 m²)

Expand to show TLE details & history

TLE from 2 months ago
0 METEOR 2-11 DEB
1 42456U 84072S   24282.38236805  .00033305  00000-0  25566-1 0  9994
2 42456  82.5415 163.7326 0042128 332.8027  27.0931 13.92519826501686
Epoch: 2024-10-08T09:10Z
Definitive object data (Epoch: 2024-10-08T09:10:36.599Z)
Latitude-0.00001°
Longitude8.58368°
Altitude895.378 km
Speed7.418 km/s
True Right ascension10h 54m 55s
True Declination0° 00' 00"
Sunlit
Object was in daylight at TLE epoch
Visualization TLE readout
Latitude-56.21341°
Longitude152.01958°
Altitude918.301 km
Speed7.396 km/s
Apparent Right ascension21h 03m 46s
Apparent Declination-48° 43' 08"
Sunlit
Object is in daylight
Visualization observer readout
Local Sidereal Time09:32:52
Azimuth151.898° SSE
Elevation-79.785°
Doppler factor1
Orbital elements
Apogee altitude947.687 km
Perigee altitude886.221 km
Semi-major axis7,295.091 km
Eccentricity0.0042128
Inclination82.5415°
RAAN163.7326°
Arg. of periapsis332.8027°
True anomaly27.314°
Mean anomaly27.0931°
Eccentric anomaly27.20345°
Mean motion3.48335 °/min
BSTAR0.025566
Orbital period103.35 mins
Loading maneuver chart data...
Loading historical data...
Loading historical data...
Loading historical data...
Loading historical data...
Loading historical data...
Loading historical data...
Loading historical data...

METEOR 2-11 DEB Visibility forecast

Observer location: undefined°, undefined

Span
Click to sort rows by Start time (UTC) header in descending order
Start Az.
Max El. time (UTC)
Max El. Az.
Max El.
End time (UTC)
End Az.
4 mins2024-12-06 19:35:21.869Z46.453° ENE2024-12-06 19:37:21.869Z68.752° E13.439°2024-12-06 19:39:21.869Z90.581° ESE
10 mins2024-12-06 21:17:21.869Z348.115° N2024-12-06 21:21:21.869Z306.583° NW43.64°2024-12-06 21:27:21.869Z180.098° SSW
7 mins2024-12-07 08:52:21.869Z126.695° SE2024-12-07 08:55:21.869Z86.539° E23.49°2024-12-07 08:59:21.869Z37.78° NE
9 mins2024-12-07 10:35:21.869Z222.705° SW2024-12-07 10:39:21.869Z292.506° NW33.789°2024-12-07 10:44:21.869Z352.867° N
|